DW3219 Weather Reports


Display with metric or nautical units.
time (UTC)temp
F
wind
direction
speed
MPH
gust
MPH
rain 1hr
in
rain 24hr
in
rain mn
in
humidity
%
barometer
mb
20260503003004 70 26 10.0 21.0 0.00 0.00 0.00 27 1009.2
20260503001545 71 88 5.0 21.0 0.00 0.00 0.00 27 1009.2
20260503000058 71 42 9.0 21.0 0.00 0.00 0.00 26 1009.3
20260502234524 73 46 3.0 12.0 0.00 0.00 0.00 19 1009.2
20260502233020 74 13 0.0 11.0 0.00 0.00 0.00 17 1009.3
20260502231522 74 23 0.0 8.0 0.00 0.00 0.00 17 1009.4
20260502230018 76 258 0.0 2.0 0.00 0.00 0.00 13 1009.5
20260502224515 75 243 2.0 12.0 0.00 0.00 0.00 13 1009.7
20260502223013 75 272 0.0 10.0 0.00 0.00 0.00 14 1009.9
20260502221510 75 257 2.0 10.0 0.00 0.00 0.00 13 1010.1
20260502220008 75 263 0.0 5.0 0.00 0.00 0.00 13 1010.4
20260502214555 75 322 0.0 4.0 0.00 0.00 0.00 13 1010.6
20260502213052 74 240 5.0 11.0 0.00 0.00 0.00 13 1010.8
20260502211554 75 301 2.0 8.0 0.00 0.00 0.00 13 1011.2
20260502210047 75 326 0.0 9.0 0.00 0.00 0.00 14 1011.5
20260502204544 74 61 0.0 9.0 0.00 0.00 0.00 15 1011.7
20260502203041 74 343 0.0 5.0 0.00 0.00 0.00 15 1012.0
20260502201539 73 200 0.0 4.0 0.00 0.00 0.00 15 1012.2
20260502200043 73 138 0.0 5.0 0.00 0.00 0.00 15 1012.4
20260502194517 73 155 0.0 4.0 0.00 0.00 0.00 16 1012.7
20260502193014 72 112 0.0 2.0 0.00 0.00 0.00 16 1012.9
20260502191604 71 103 0.0 7.0 0.00 0.00 0.00 18 1013.3
20260502190057 71 136 0.0 5.0 0.00 0.00 0.00 18 1013.6
20260502184554 70 252 0.0 2.0 0.00 0.00 0.00 17 1013.9
20260502183052 70 250 0.0 5.0 0.00 0.00 0.00 17 1014.2
20260502181551 69 184 0.0 1.0 0.00 0.00 0.00 21 1014.5
20260502163021 61 143 0.0 0.0 0.00 0.00 0.00 30 1015.9
20260502161513 60 145 0.0 4.0 0.00 0.00 0.00 30 1016.1
20260502151511 56 276 0.0 2.0 0.00 0.00 0.00 34 1016.5
20260502123045 36 277 0.0 0.0 0.00 0.00 0.00 65 1016.9
20260502121519 35 277 0.0 0.0 0.00 0.00 0.00 65 1016.8
20260502114601 37 275 0.0 0.0 0.00 0.00 0.00 61 1016.7
20260502113058 37 275 0.0 0.0 0.00 0.00 0.00 60 1016.6
20260502111551 36 276 0.0 0.0 0.00 0.00 0.00 60 1016.6
20260502110047 37 276 0.0 0.0 0.00 0.00 0.00 60 1016.7
20260502104545 36 278 0.0 0.0 0.00 0.00 0.00 61 1016.7
20260502103042 37 258 0.0 2.0 0.00 0.00 0.00 60 1016.6
20260502101544 38 257 0.0 0.0 0.00 0.00 0.00 60 1016.5
20260502071506 43 263 0.0 0.0 0.00 0.00 0.00 52 1016.9
20260502070051 44 263 0.0 0.0 0.00 0.00 0.00 50 1016.9
20260502064550 45 263 0.0 0.0 0.00 0.00 0.00 48 1016.8
20260502063101 46 263 0.0 0.0 0.00 0.00 0.00 46 1016.6
20260502061549 46 263 0.0 0.0 0.00 0.00 0.00 45 1016.7
20260502060042 47 263 0.0 0.0 0.00 0.00 0.00 44 1016.5
20260502054540 47 263 0.0 0.0 0.00 0.00 0.00 42 1016.4
20260502053050 48 264 0.0 0.0 0.00 0.00 0.00 40 1016.4
20260502051536 49 264 0.0 1.0 0.00 0.00 0.00 41 1016.3
20260502050019 50 159 0.0 0.0 0.00 0.00 0.00 39 1016.3
20260502044516 50 154 0.0 0.0 0.00 0.00 0.00 37 1016.1
20260502043017 52 154 0.0 0.0 0.00 0.00 0.00 37 1016.1
20260502041516 53 154 0.0 0.0 0.00 0.00 0.00 35 1016.0
20260502040006 55 154 0.0 0.0 0.00 0.00 0.00 32 1016.0
20260502034501 57 153 0.0 0.0 0.00 0.00 0.00 31 1015.8
20260502033058 58 154 0.0 0.0 0.00 0.00 0.00 29 1015.8
20260502031555 59 153 0.0 0.0 0.00 0.00 0.00 29 1015.7
20260502030034 61 154 0.0 0.0 0.00 0.00 0.00 25 1015.6
20260502024531 63 153 0.0 0.0 0.00 0.00 0.00 25 1015.4
20260502023014 65 153 0.0 0.0 0.00 0.00 0.00 22 1015.2
20260502021510 66 153 0.0 0.0 0.00 0.00 0.00 21 1015.2
20260502020007 67 153 0.0 0.0 0.00 0.00 0.00 21 1015.1
20260502014506 67 154 0.0 2.0 0.00 0.00 0.00 20 1015.1
20260502013006 68 155 0.0 3.0 0.00 0.00 0.00 20 1015.0
20260502011505 69 161 0.0 0.0 0.00 0.00 0.00 19 1015.1
20260502010003 69 164 0.0 5.0 0.00 0.00 0.00 17 1015.2
20260502004506 69 159 0.0 2.0 0.00 0.00 0.00 17 1015.2